#timestamp,LO_Frequency,Hit,StdDev 
1505178015.9,286047002.1,N,1.0
1505178035.7,286047002.6,N,1.0
1505178055.6,286047002.3,N,1.0
1505178075.4,286047002.2,N,1.0
1505178095.3,286046999.7,N,1.1
1505178115.1,286047001.6,N,1.0
1505178135.8,286047002.8,N,1.1
1505178155.7,286047002.0,N,1.0
1505178175.5,286047002.3,N,1.0
1505178195.4,286047004.4,Y,0.0
1505178215.2,286047000.2,P,0.7
1505178235.0,286047000.5,N,0.6
1505178235.9,286047000.5,N,0.6
1505178255.8,286047000.6,N,0.5
1505178275.6,286047000.2,N,0.5
1505178295.5,286047002.4,Y,0.0
1505178315.3,286047000.0,P,0.3
1505178335.1,286046999.8,N,0.3
1505178355.9,286046999.8,N,0.3
1505178375.7,286047000.2,N,0.3
1505178395.6,286047000.6,N,0.3
1505178415.4,286046999.7,N,0.4
1505178435.3,286047001.5,Y,0.0
1505178455.1,286047001.9,P,0.9
1505178456.0,286047001.9,N,0.8
1505178475.8,286046999.8,N,1.0
1505178495.7,286047002.4,N,1.1
1505178515.5,286047002.1,N,1.0
1505178535.4,286047001.6,N,0.9
1505178555.2,286047001.4,N,0.9
1505178575.0,286047001.9,N,0.8
1505178575.9,286047001.9,N,0.8
1505178595.8,286047001.8,N,0.8
1505178615.6,286047004.0,Y,0.0
1505178635.5,286047002.2,P,0.3
1505178655.3,286047002.0,P,0.3
1505178675.1,286047001.9,P,0.2
1505178695.9,286047001.6,Y,0.0
1505178715.7,286047001.0,P,0.5
1505178735.6,286047000.5,N,0.6
1505178755.4,286046998.2,P,1.4
1505178775.2,286047000.6,N,1.2
1505178795.1,286046999.9,N,1.1
1505178796.0,286046999.9,N,1.1
1505178815.8,286047002.7,N,1.3
1505178835.7,286047002.7,N,1.4
1505178855.5,286047000.6,N,1.3
1505178875.3,286047000.5,N,1.2
1505178895.2,286047001.0,N,1.2
1505178915.0,286047000.5,N,1.2
1505178915.9,286047000.5,N,1.1
1505178935.8,286047000.7,N,1.1
1505178955.6,286046999.7,N,1.1
1505178975.4,286047000.1,N,1.0
1505178995.3,286047002.3,N,1.1
1505179015.1,286047002.2,N,1.1
1505179035.9,286047011.9,Y,0.0
1505179055.7,286047000.2,P,0.3
1505179075.5,286046999.7,N,0.5
1505179095.4,286046999.7,N,0.5
1505179115.2,286047000.2,N,0.4
1505179135.1,286046999.8,N,0.4
1505179136.0,286046999.8,N,0.4
1505179155.8,286047000.1,N,0.4
1505179175.6,286047001.5,Y,0.0
1505179195.5,286047001.2,P,0.6
1505179215.3,286046996.6,P,2.0
1505179235.2,286046999.2,N,1.7
1505179255.9,286046998.7,N,1.5
1505179275.7,286047000.8,N,1.5
1505179295.6,286046998.8,N,1.4
1505179315.4,286046998.3,N,1.4
1505179335.3,286047001.1,N,1.4
1505179355.1,286047000.6,N,1.4
1505179375.8,286046999.8,N,1.3
1505179395.7,286047002.8,N,1.6
1505179415.5,286047002.4,N,1.7
1505179435.4,286047002.8,N,1.7
1505179455.2,286047002.7,N,1.8
1505179475.0,286047002.4,N,1.8
1505179475.9,286047002.4,N,1.8
1505179495.8,286047002.4,N,1.8
1505179515.6,286047002.6,N,1.8
1505179535.5,286047001.9,N,1.8
1505179555.3,286047004.3,N,1.9
1505179575.1,286047004.4,N,2.0
1505179595.9,286047001.7,N,1.9
1505179615.7,286047001.3,N,1.9
1505179635.6,286047004.2,N,1.9
1505179655.4,286047002.1,N,1.9
1505179675.2,286047001.7,N,1.9
1505179695.1,286047001.8,N,1.8
1505179696.0,286047001.8,N,1.8
1505179715.8,286047002.0,N,1.8
1505179735.7,286046999.9,N,1.8
1505179755.5,286046999.7,N,1.8
1505179775.3,286047000.6,N,1.6
1505179795.2,286047000.3,N,1.5
1505179815.0,286047002.8,N,1.5
1505179815.9,286047002.8,N,1.5
1505179835.8,286047000.3,N,1.4
1505179855.6,286047000.0,N,1.3
1505179875.4,286046999.8,N,1.3
1505179895.3,286047001.7,N,1.3
1505179915.1,286047002.3,N,1.3
1505179935.9,286047002.0,N,1.2
1505179955.7,286047002.1,N,1.2
1505179975.5,286047001.9,N,1.2
1505179995.4,286047001.4,N,1.2
1505180015.2,286047001.8,N,1.2
1505180035.1,286047001.8,N,1.2
1505180036.0,286047001.8,N,1.2
1505180055.8,286047001.5,N,1.2
1505180075.6,286047004.4,Y,0.0
1505180095.5,286046999.8,P,1.0
1505180115.3,286047000.1,N,0.8
1505180135.2,286047002.7,P,1.2
1505180155.0,286047000.2,N,1.1
1505180155.9,286047000.2,N,1.1
1505180175.7,286047002.6,N,1.2
1505180195.6,286047002.2,N,1.2
1505180215.4,286047000.9,N,1.1
1505180235.3,286047000.5,N,1.1
1505180255.1,286047000.9,N,1.0
1505180275.8,286047000.6,N,1.0
1505180295.7,286047000.3,N,1.0
1505180315.5,286047000.0,N,1.0
1505180335.4,286047000.3,N,0.9
1505180355.2,286047000.0,N,0.9
1505180375.1,286047000.0,N,0.9
1505180376.0,286047000.0,N,0.9
1505180395.8,286047002.4,N,1.0
1505180415.6,286047000.0,N,1.0
1505180435.5,286047002.8,N,1.0
1505180455.3,286047002.7,N,1.1
1505180475.2,286046999.9,N,1.1
1505180495.9,286046999.7,N,1.1
1505180515.7,286047002.4,N,1.1
1505180535.6,286047002.3,N,1.1
1505180555.4,286047002.6,N,1.1
1505180575.2,286047002.3,N,1.1
1505180595.1,286047001.6,N,1.1
1505180596.0,286047001.6,N,1.1
1505180615.8,286047004.1,Y,0.0
1505180635.7,286047002.2,P,0.5
1505180655.5,286047002.0,P,0.5
1505180675.4,286047001.6,P,0.4
1505180695.2,286047000.1,N,0.8
1505180715.0,286047000.3,N,0.8
1505180715.9,286047000.3,N,0.8
1505180735.8,286047000.3,N,0.8
1505180755.6,286047000.0,N,0.8
1505180775.5,286047002.8,Y,0.0
1505180795.3,286047000.3,P,0.3
1505180815.1,286047000.8,N,0.3
1505180835.9,286047001.1,P,0.3
1505180855.7,286047002.5,Y,0.0
1505180875.6,286047001.1,P,0.2
1505180895.4,286047000.9,P,0.1
1505180915.3,286046999.9,N,0.5
1505180935.1,286047000.9,N,0.4
1505180936.0,286047000.9,N,0.4
1505180955.8,286047000.6,N,0.4
1505180975.7,286047000.6,N,0.3
1505180995.5,286046998.2,Y,0.0
1505181015.4,286046998.2,P,1.3
1505181035.2,286046998.6,N,1.1
1505181055.0,286046998.2,N,1.0
1505181055.9,286046998.2,N,1.0
1505181075.8,286046999.3,N,0.9
1505181095.6,286046998.9,N,0.8
1505181115.5,286046998.9,N,0.8
1505181135.3,286047000.9,N,1.0
1505181155.1,286046998.5,N,0.9
1505181175.9,286046998.9,N,0.9
1505181195.7,286047000.7,N,1.0
1505181215.5,286047000.4,N,1.0
1505181235.4,286046998.6,N,1.0
1505181255.2,286046998.6,N,1.0
1505181275.1,286047001.0,N,1.0
1505181276.0,286047001.0,N,1.1
1505181295.8,286047001.1,N,1.1
1505181315.7,286047000.7,N,1.1
1505181335.5,286047000.6,N,1.1
1505181355.3,286047001.0,N,1.1
1505181375.2,286046998.5,N,1.1
1505181395.0,286046998.5,N,1.1
1505181395.9,286046998.5,N,1.1
1505181415.8,286047000.7,N,1.1
1505181435.6,286046998.2,N,1.1
1505181455.4,286047001.0,N,1.1
1505181475.3,286046998.8,N,1.1
1505181495.1,286047000.8,N,1.1
1505181515.8,286046998.7,N,1.1
1505181535.7,286046999.0,N,1.1
1505181555.5,286046999.5,N,1.1
1505181575.4,286046999.3,N,1.1
1505181595.2,286046998.9,N,1.1
